Gilze-Rijen, Netherlands

1:36 AM CEST on March 27, 2017 (GMT +0200)
Gilze-Rijen Air Base

Weather History for EHGR - October, 2012

Change the Weather History Date:

Tuesday, October 23, 2012

  Actual Average Record
Temperature  
Mean Temperature 58 °F -  
Max Temperature 66 °F 49 °F 66 °F (2000)
Min Temperature 50 °F 39 °F 26 °F (1997)
Degree Days  
Heating Degree Days 7    
Growing Degree Days 8 (Base 50)    
Moisture  
Dew Point 54 °F    
Average Humidity 92    
Maximum Humidity 100    
Minimum Humidity 68    
Precipitation  
Precipitation 0.00 in - - ()
Sea Level Pressure  
Sea Level Pressure 30.19 in    
Wind  
Wind Speed 4 mph ()    
Max Wind Speed 9 mph    
Max Gust Speed 23 mph    
Visibility 3.3 miles    
Events      
Averages and records for this station are not official NWS values.
T = Trace of Precipitation, MM = Missing Value Source: Averaged Metar Reports

Daily Weather History Graph

Daily Weather History Graph

Search for Another Location

Airport or City:

Trip Planner

Search our weather history database for the weather conditions in past years. The results will help you decide how hot, cold, wet, or windy it might be!

Date:

Astronomy

Oct. 23, 2012 Rise Set
Actual Time 8:18 AM CEST 6:29 PM CEST
Civil Twilight 7:44 AM CEST 7:03 PM CEST
Nautical Twilight 7:05 AM CEST 7:42 PM CEST
Astronomical Twilight 6:26 AM CEST 8:21 PM CEST
Moon 3:42 PM CEST (10/23) 1:10 AM CEST (10/23)
Length of Visible Light 11h 19m
Length of Day
10h 10m
Waxing Gibbous, 64% of the Moon is Illuminated
Oct 23
Waxing Gibbous
Oct 29
Full
Nov 7
Last Quarter
Nov 13
New
Nov 20
First Quarter

Hourly Weather History & Observations

Time (CEST) Temp. Dew Point Humidity Pressure Visibility Wind Dir Wind Speed Gust Speed Precip Events Conditions
12:00 AM 57.2 °F 55.4 °F 94% 30.18 in 5.0 mi NNE 3.5 mph - N/A   Mist
12:06 AM 57.2 °F 55.4 °F 94% 30.18 in 4.3 mi NNE 3.5 mph - N/A   Mist
12:12 AM 57.2 °F 55.4 °F 94% 30.18 in - NNE 3.5 mph - N/A   Mist
12:17 AM 55.4 °F 55.4 °F 100% 30.18 in 3.1 mi NNE 4.6 mph - N/A   Mist
12:25 AM 55.4 °F 53.6 °F 94% 30.18 in 3.7 mi NNE 3.5 mph - N/A   Mist
12:29 AM 55.4 °F 55.4 °F 100% 30.18 in - NNE 3.5 mph - N/A   Mist
12:30 AM 55.4 °F 55.4 °F 100% 30.18 in 3.1 mi NNE 3.5 mph - N/A   Mist
12:37 AM 55.4 °F 55.4 °F 100% 30.18 in - NNE 3.5 mph - N/A   Mist
12:42 AM 55.4 °F 55.4 °F 100% 30.18 in 3.1 mi NE 2.3 mph - N/A   Mist
12:49 AM 55.4 °F 55.4 °F 100% 30.18 in - NE 2.3 mph - N/A   Mist
12:55 AM 55.4 °F 55.4 °F 100% 30.18 in - ENE 2.3 mph - N/A   Mist
1:18 AM 55.4 °F 55.4 °F 100% 30.18 in 0.9 mi NE 3.5 mph - N/A   Mist
1:25 AM 53.6 °F 53.6 °F 100% 30.18 in - NE 3.5 mph - N/A   Mist
1:31 AM 53.6 °F 53.6 °F 100% 30.18 in - ENE 3.5 mph - N/A   Mist
1:32 AM 53.6 °F 51.8 °F 94% 30.18 in - ENE 3.5 mph - N/A   Mist
1:41 AM 53.6 °F 51.8 °F 94% 30.18 in - ENE 3.5 mph - N/A   Mist
1:42 AM 53.6 °F 51.8 °F 94% 30.18 in - ENE 2.3 mph - N/A   Mist
1:55 AM 53.6 °F 53.6 °F 100% 30.18 in - ENE 2.3 mph - N/A   Mist
1:59 AM 53.6 °F 53.6 °F 100% 30.18 in - East 2.3 mph - N/A   Mist
2:11 AM 53.6 °F 53.6 °F 100% 30.18 in 0.6 mi ENE 3.5 mph - N/A   Mist
2:12 AM 53.6 °F 53.6 °F 100% 30.18 in 1.4 mi ENE 3.5 mph - N/A   Mist
2:25 AM 51.8 °F 51.8 °F 100% 30.18 in 1.6 mi ENE 3.5 mph - N/A   Partly Cloudy
2:55 AM 51.8 °F 51.8 °F 100% 30.18 in - NE 3.5 mph - N/A   Mist
3:11 AM 51.8 °F 51.8 °F 100% 30.18 in 2.5 mi NE 3.5 mph - N/A   Mist
3:15 AM 51.8 °F 51.8 °F 100% 30.18 in - NE 3.5 mph - N/A   Mist
3:25 AM 51.8 °F 51.8 °F 100% 30.18 in 1.8 mi NE 3.5 mph - N/A   Overcast
3:34 AM 51.8 °F 51.8 °F 100% 30.18 in 1.7 mi NE 3.5 mph - N/A   Mist
3:55 AM 51.8 °F 51.8 °F 100% 30.18 in 1.7 mi NE 3.5 mph - N/A   Mist
3:57 AM 50.0 °F 50.0 °F 100% 30.18 in 1.6 mi NE 3.5 mph - N/A   Mist
4:11 AM 51.8 °F 51.8 °F 100% 30.18 in 1.7 mi NE 4.6 mph - N/A   Scattered Clouds
4:12 AM 50.0 °F 50.0 °F 100% 30.18 in 1.7 mi NE 3.5 mph - N/A   Mist
4:25 AM 51.8 °F 51.8 °F 100% 30.18 in 1.6 mi NE 3.5 mph - N/A   Mostly Cloudy
4:36 AM 50.0 °F 50.0 °F 100% 30.18 in 1.5 mi NE 3.5 mph - N/A   Mist
4:55 AM 51.8 °F 51.8 °F 100% 30.18 in 1.5 mi NE 3.5 mph - N/A   Overcast
5:25 AM 51.8 °F 51.8 °F 100% 30.18 in 1.3 mi East 2.3 mph - N/A   Overcast
5:41 AM 51.8 °F 51.8 °F 100% 30.18 in 1.1 mi ENE 2.3 mph - N/A   Overcast
5:48 AM 51.8 °F 51.8 °F 100% 30.18 in 0.9 mi ENE 2.3 mph - N/A   Overcast
5:55 AM 51.8 °F 51.8 °F 100% 30.18 in 0.8 mi ENE 2.3 mph - N/A   Overcast
6:25 AM 51.8 °F 51.8 °F 100% 30.18 in 0.6 mi NE 3.5 mph - N/A   Overcast
6:55 AM 51.8 °F 51.8 °F 100% 30.18 in 0.9 mi NE 4.6 mph - N/A   Overcast
7:03 AM 51.8 °F 51.8 °F 100% 30.18 in 1.0 mi ENE 2.3 mph - N/A   Overcast
7:16 AM 51.8 °F 51.8 °F 100% 30.18 in 1.0 mi NE 2.3 mph - N/A   Overcast
7:25 AM 51.8 °F 51.8 °F 100% 30.18 in 1.0 mi ENE 2.3 mph - N/A   Overcast
7:35 AM 51.8 °F 51.8 °F 100% 30.18 in 1.1 mi ENE 3.5 mph - N/A   Overcast
7:55 AM 51.8 °F 51.8 °F 100% 30.18 in 1.1 mi ENE 3.5 mph - N/A   Overcast
8:25 AM 51.8 °F 51.8 °F 100% 30.21 in 1.3 mi ENE 4.6 mph - N/A   Overcast
8:28 AM 53.6 °F 53.6 °F 100% 30.21 in 1.5 mi ENE 4.6 mph - N/A   Overcast
8:47 AM 53.6 °F 53.6 °F 100% 30.21 in - ENE 4.6 mph - N/A   Overcast
8:51 AM 53.6 °F 53.6 °F 100% 30.21 in 2.2 mi ENE 4.6 mph - N/A   Overcast
8:55 AM 55.4 °F 55.4 °F 100% 30.21 in - ENE 5.8 mph - N/A   Overcast
9:09 AM 55.4 °F 55.4 °F 100% 30.21 in - East 5.8 mph - N/A   Overcast
9:25 AM 55.4 °F 55.4 °F 100% 30.21 in 3.1 mi East 5.8 mph - N/A   Overcast
9:27 AM 55.4 °F 55.4 °F 100% 30.21 in - East 5.8 mph - N/A   Overcast
9:31 AM 55.4 °F 55.4 °F 100% 30.21 in 3.1 mi East 5.8 mph - N/A   Overcast
9:44 AM 55.4 °F 55.4 °F 100% 30.21 in 3.7 mi East 5.8 mph - N/A   Overcast
9:55 AM 55.4 °F 55.4 °F 100% 30.21 in 3.7 mi East 6.9 mph - N/A   Overcast
10:25 AM 57.2 °F 55.4 °F 94% 30.21 in 3.7 mi East 6.9 mph - N/A   Overcast
10:46 AM 57.2 °F 55.4 °F 94% 30.21 in 5.0 mi East 5.8 mph - N/A   Overcast
10:51 AM 57.2 °F 55.4 °F 94% 30.21 in 4.3 mi East 5.8 mph - N/A   Overcast
10:55 AM 57.2 °F 55.4 °F 94% 30.21 in 4.3 mi East 4.6 mph - N/A   Overcast
10:59 AM 57.2 °F 55.4 °F 94% 30.21 in 5.0 mi East 4.6 mph - N/A   Overcast
11:03 AM 57.2 °F 55.4 °F 94% 30.21 in 4.3 mi East 4.6 mph - N/A   Overcast
11:14 AM 57.2 °F 55.4 °F 94% 30.21 in 5.0 mi East 4.6 mph - N/A   Overcast
11:21 AM 59.0 °F 55.4 °F 88% 30.21 in 4.3 mi East 4.6 mph - N/A   Overcast
11:25 AM 59.0 °F 55.4 °F 88% 30.21 in 5.0 mi East 4.6 mph - N/A   Overcast
11:26 AM 59.0 °F 55.4 °F 88% 30.21 in 4.3 mi East 5.8 mph - N/A   Overcast
11:46 AM 59.0 °F 55.4 °F 88% 30.21 in 5.0 mi ENE 5.8 mph - N/A   Overcast
11:55 AM 59.0 °F 53.6 °F 82% 30.21 in 5.0 mi ENE 6.9 mph - N/A   Overcast
12:06 PM 59.0 °F 55.4 °F 88% 30.21 in 5.0 mi East 5.8 mph - N/A   Overcast
12:15 PM 59.0 °F 53.6 °F 82% 30.21 in 5.6 mi East 8.1 mph - N/A   Overcast
12:25 PM 60.8 °F 53.6 °F 77% 30.21 in 5.6 mi East 8.1 mph - N/A   Overcast
12:41 PM 60.8 °F 53.6 °F 77% 30.21 in 5.6 mi East 6.9 mph - N/A   Overcast
12:55 PM 60.8 °F 53.6 °F 77% 30.21 in 6.2 mi East 8.1 mph - N/A   Overcast
1:25 PM 62.6 °F 55.4 °F 77% 30.21 in 6.2 mi East 6.9 mph - N/A   Overcast
1:55 PM 64.4 °F 55.4 °F 73% 30.21 in 6.2 mi East 6.9 mph - N/A   Overcast
2:25 PM 64.4 °F 55.4 °F 73% 30.21 in 6.2 mi ENE 6.9 mph - N/A   Overcast
2:55 PM 66.2 °F 55.4 °F 68% 30.21 in 6.2 mi ENE 6.9 mph - N/A   Unknown
3:25 PM 64.4 °F 55.4 °F 73% 30.21 in 6.2 mi ENE 5.8 mph - N/A   Unknown
3:55 PM 66.2 °F 55.4 °F 68% 30.21 in 6.2 mi NE 5.8 mph - N/A   Partly Cloudy
4:25 PM 64.4 °F 55.4 °F 73% 30.21 in 5.6 mi ENE 8.1 mph - N/A   Haze
4:40 PM 64.4 °F 55.4 °F 73% 30.21 in 5.6 mi ENE 9.2 mph - N/A   Haze
4:55 PM 64.4 °F 55.4 °F 73% 30.21 in 6.2 mi ENE 8.1 mph - N/A   Partly Cloudy
5:25 PM 64.4 °F 55.4 °F 73% 30.18 in 5.0 mi ENE 8.1 mph - N/A   Haze
5:42 PM 62.6 °F 55.4 °F 77% 30.18 in 4.3 mi ENE 6.9 mph - N/A   Haze
5:45 PM 62.6 °F 53.6 °F 72% 30.18 in 4.3 mi ENE 6.9 mph - N/A   Haze
5:55 PM 62.6 °F 53.6 °F 72% 30.18 in 3.7 mi NE 6.9 mph - N/A   Haze
6:25 PM 60.8 °F 55.4 °F 82% 30.18 in 3.1 mi NE 5.8 mph - N/A   Haze
6:47 PM 59.0 °F 55.4 °F 88% 30.18 in - NE 5.8 mph - N/A   Mist
6:55 PM 59.0 °F 53.6 °F 82% 30.21 in 3.1 mi NE 5.8 mph - N/A   Mist
6:58 PM 57.2 °F 53.6 °F 88% 30.21 in - NE 5.8 mph - N/A   Mist
7:03 PM 57.2 °F 53.6 °F 88% 30.21 in 3.1 mi NE 5.8 mph - N/A   Partly Cloudy
7:08 PM 59.0 °F 55.4 °F 88% 30.21 in - NE 6.9 mph - N/A   Partly Cloudy
7:25 PM 59.0 °F 53.6 °F 82% 30.21 in - ENE 5.8 mph - N/A   Partly Cloudy
7:55 PM 57.2 °F 53.6 °F 88% 30.21 in - ENE 4.6 mph - N/A   Mist
8:25 PM 57.2 °F 53.6 °F 88% 30.21 in - East 5.8 mph - N/A   Mostly Cloudy
8:55 PM 57.2 °F 53.6 °F 88% 30.21 in - East 6.9 mph - N/A   Overcast
9:25 PM 57.2 °F 55.4 °F 94% 30.21 in - East 9.2 mph - N/A   Overcast
9:36 PM 57.2 °F 55.4 °F 94% 30.21 in - East 9.2 mph 23.0 mph N/A   Mostly Cloudy
9:40 PM 57.2 °F 53.6 °F 88% 30.21 in - East 8.1 mph 23.0 mph N/A   Mostly Cloudy
9:43 PM 57.2 °F 55.4 °F 94% 30.21 in - East 8.1 mph - N/A   Mostly Cloudy
9:49 PM 57.2 °F 55.4 °F 94% 30.21 in - East 8.1 mph - N/A   Mostly Cloudy
9:55 PM 57.2 °F 53.6 °F 88% 30.21 in - East 9.2 mph - N/A   Overcast
10:09 PM 57.2 °F 53.6 °F 88% 30.21 in - East 8.1 mph - N/A   Mist
10:19 PM 55.4 °F 53.6 °F 94% 30.18 in - East 6.9 mph - N/A   Mist
10:20 PM 55.4 °F 53.6 °F 94% 30.18 in - East 6.9 mph - N/A   Mist
10:25 PM 55.4 °F 53.6 °F 94% 30.18 in - East 6.9 mph - N/A   Mist
10:55 PM 55.4 °F 53.6 °F 94% 30.18 in - ENE 6.9 mph - N/A   Scattered Clouds
11:25 PM 55.4 °F 53.6 °F 94% 30.18 in - ENE 6.9 mph - N/A   Partly Cloudy
11:55 PM 55.4 °F 53.6 °F 94% 30.18 in 1.9 mi ENE 6.9 mph - N/A   Mist